Regional Weather Roundup
Issued by NWS Sioux Falls, SD

Home | Current Version | Previous Version | Graphics & Text | Print | Product List | Glossary Off
Versions: 1 2 3 4 5 6 7 8 9 10 11 12 13 14 15 16 17 18 19 20 21 22 23 24 25 26 27 28 29 30 31 32 33 34 35 36 37 38 39 40 41 42 43 44 45 46 47 48 49 50

000
ASUS43 KFSD 260202
RWRFSD

WEATHER ROUNDUP FOR SE SOUTH DAKOTA/SW MINNESOTA/NW IOWA
NATIONAL WEATHER SERVICE SIOUX FALLS SD
900 PM CDT MON MAY 25 2015

NOTE: "FAIR" INDICATES FEW OR NO CLOUDS BELOW 12,000 FEET WITH NO
SIGNIFICANT WEATHER AND OR OBSTRUCTIONS TO VISIBILITY.


SDZ038>040-050-052>070-260300-
SOUTHEAST SOUTH DAKOTA

CITY           SKY/WX    TMP DP  RH WIND       PRES   REMARKS
BROOKINGS      PTCLDY    57  54  88 N6        29.81R
CHAMBERLAIN    CLOUDY    62  51  68 NE7       29.82R
HURON          CLEAR     61  50  67 E8        29.81R
MADISON        FAIR      59  59 100 N9        29.79S
MITCHELL       CLEAR     61  55  81 N12       29.78R
SIOUX FALLS    PTCLDY    63  58  83 N7        29.76F
WINNER         CLOUDY    61  56  83 NE6       29.82S
YANKTON        PTCLDY    66  59  77 N7        29.73F
$$

MNZ071-072-080-081-089-090-097-098-260300-
SOUTHWEST MINNESOTA

CITY           SKY/WX    TMP DP  RH WIND       PRES   REMARKS
FAIRMONT       PTCLDY    70  55  60 CALM      29.75S
JACKSON        PTCLDY    64  61  88 CALM      29.77S
LUVERNE        CLEAR     64  57  77 N5        29.77F
MARSHALL       PTCLDY    59  52  77 NW9       29.78S
MONTEVIDEO     PTCLDY    61  55  82 N5        29.78R
REDWOOD FALLS  PTCLDY    62  56  80 W8        29.76R
TRACY          CLOUDY    64  58  81 NW8       29.78S
WINDOM         PTCLDY    64  57  77 NW6       29.77S
WORTHINGTON    PTCLDY    64  57  77 N9        29.77F
$$

IAZ001>003-012>014-020>022-031-032-NEZ013-014-SDZ071-260300-
NORTHWEST IOWA

CITY           SKY/WX    TMP DP  RH WIND       PRES   REMARKS
DENISON        LGT RAIN  64  64 100 S16G22    29.77S
ESTHERVILLE    PTCLDY    67  57  70 NW5       29.75S
SIOUX CITY     PTCLDY    74  56  53 S3        29.72F
SPENCER        MOCLDY    68  59  73 NW6       29.75F
$$

ABBREVIATIONS USED IN REMARKS
   TC - TEMPERATURE IN CELSIUS
  WCI - WIND CHILL INDEX
   HX - HEAT INDEX
  VSB - VISIBILITY



USA.gov is the U.S. government's official web portal to all federal, state and local government web resources and services.